Regional Weather Roundup
Issued by NWS

Home | Current Version | Previous Version | Text Only | Print | Product List | Glossary Off
Versions: 1 2 3 4 5 6 7 8 9 10 11 12 13 14 15 16 17 18 19 20 21 22 23 24 25 26 27 28 29 30 31 32 33 34 35 36 37 38 39 40 41

000
ASUS43 KDMX 252007
RWRIA

WEATHER ROUNDUP FOR IOWA
NATIONAL WEATHER SERVICE DES MOINES IA
200 PM CST THU DEC 25 2014

NOTE: "FAIR" INDICATES FEW OR NO CLOUDS BELOW 12,000 FEET WITH NO
SIGNIFICANT WEATHER AND/OR OBSTRUCTIONS TO VISIBILITY.

* - THESE STATIONS ARE NOT NWS STATIONS...THUS NOT UNDER NWS
QUALITY CONTROL.  THEY ALSO DO NOT REPORT WEATHER SUCH
AS PRECIPITATION OR FOG.

IAZ001>003-012>014-020>022-031>034-043>046-252100-
   NORTHWEST IOWA

CITY           SKY/WX    TMP DP  RH WIND       PRES   REMARKS
CARROLL *      SUNNY     45  34  65 S13       29.66F
CHEROKEE *     PTSUNNY   37  32  81 E6        29.65F WCI  33
DENISON *      SUNNY     45  34  65 S12G18    29.61F
LE MARS *      SUNNY     37  32  81 E9        29.63S WCI  31
ORANGE CITY *  SUNNY     39  30  70 E7        29.62F WCI  34
SHELDON *      SUNNY     37  30  75 SE6       29.63F WCI  33
SIOUX CITY     MOSUNNY   42  31  64 SE13      29.61F
SPENCER        PTSUNNY   37  28  70 SE6       29.66F WCI  32
STORM LAKE *   SUNNY     36  32  87 SE13      29.65F WCI  27
$$

IAZ055>058-069>071-079>083-090>094-252100-
   SOUTHWEST IOWA

CITY           SKY/WX    TMP DP  RH WIND       PRES   REMARKS
ATLANTIC *     SUNNY     48  34  57 SE10      29.62F
AUDUBON *      SUNNY     46  30  53 S13G20    29.64F
CLARINDA *     SUNNY     50  32  50 S17G25    29.63F
COUNCIL BLFS * SUNNY     46  36  66 SE14      29.59S
CRESTON *      SUNNY     48  32  53 S18G26    29.67F
HARLAN  *      SUNNY     45  36  70 S14G23    29.64F
LAMONI         SUNNY     48  30  49 S20G29    29.71F
RED OAK *      SUNNY     50  34  53 S16G24    29.62F
SHENANDOAH *   SUNNY     50  34  53 S21G33    29.61F
$$

IAZ047>049-059>061-072>074-084-252100-
   CENTRAL IOWA

CITY           SKY/WX    TMP DP  RH WIND       PRES   REMARKS
AMES           SUNNY     46  31  55 S13       29.72F
ANKENY *       SUNNY     48  32  53 S12       29.71F
CHARITON *     SUNNY     48  32  53 S18G28    29.72F
DES MOINES     MOSUNNY   49  32  52 S17       29.72F
GRINNELL*      MOSUNNY   46  32  57 S13G22    29.76S
KNOXVILLE *    SUNNY     50  32  50 S17G24    29.73F
MARSHALLTOWN   PTSUNNY   46  34  62 S15       29.74S
PELLA *        SUNNY     50  32  50 S15G23    29.77S
PERRY *          N/A     46  36  66 S15       29.69F
$$

IAZ004>006-015-016-023>025-035-036-252100-
   NORTH CENTRAL IOWA

CITY           SKY/WX    TMP DP  RH WIND       PRES   REMARKS
ALGONA *       SUNNY     36 N/A N/A S8        29.71R WCI  29
CLARION *      SUNNY     36  32  87 S14       29.71R WCI  27
ESTHERVILLE    PTSUNNY   36  29  75 S8        29.68S WCI  30
FORT DODGE *   PTSUNNY   39  30  70 S10       29.70S WCI  32
MASON CITY     CLOUDY    36  30  79 S9        29.74R WCI  29
FOREST CITY *  SUNNY     36  30  80 SE7       29.72S WCI  30
IOWA FALLS *     N/A     43  34  70 S14       29.74R
$$

IAZ007>011-017>019-026>030-037>042-050>054-066-252100-
   NORTHEAST IOWA

CITY           SKY/WX    TMP DP  RH WIND       PRES   REMARKS
CEDAR RAPIDS   PTSUNNY   47  33  58 S12       29.80F
CHARLES CITY * SUNNY     39  32  75 S14       29.74F WCI  31
CLINTON *      SUNNY     46  30  53 S16       29.90S
DECORAH *      SUNNY     39  30  70 S8        29.77R WCI  34
DUBUQUE        MOSUNNY   41  30  65 S14       29.83S
MONTICELLO *   SUNNY     45  34  65 S14       29.83S
OELWEIN *      SUNNY     43  32  65 S17       29.78S
WATERLOO       PTSUNNY   43  31  62 S16       29.76F
$$

IAZ064-065-067-068-078-252100-
   EAST CENTRAL IOWA

CITY           SKY/WX    TMP DP  RH WIND       PRES   REMARKS
DAVENPORT      SUNNY     45  31  58 S17       29.87F
IOWA CITY      PTSUNNY   45  32  60 S15       29.84F
MT. PLEASANT * MOSUNNY   46  34  61 S14G21    29.85F
MUSCATINE *    SUNNY     48  32  53 S15       29.85F
QUAD CITIES    SUNNY     48  31  51 S14       29.86F
$$

IAZ062-063-075>077-085>089-095>099-252100-
   SOUTHEAST IOWA

CITY           SKY/WX    TMP DP  RH WIND       PRES   REMARKS
BURLINGTON     MOSUNNY   48  33  56 S14       29.86F
FAIRFIELD *    SUNNY     48  32  53 S17       29.81F
FORT MADISON * SUNNY     48  36  61 S14       29.87F
KEOKUK *       SUNNY     48  32  53 S14       29.86F
OSKALOOSA *      N/A     48  32  53 S18       29.79F
CENTERVILLE *  SUNNY     48  32  53 S17G24    29.78F
OTTUMWA        MOSUNNY   49  31  49 S15G26    29.78F
WASHINGTON *   SUNNY     48  34  57 S17       29.82F
$$

ABBREVIATIONS USED IN REMARKS
   TC - TEMPERATURES IN CELSIUS
  WCI - WIND CHILL INDEX
   HX - HEAT INDEX
  VSB - VISIBILITY
$$



USA.gov is the U.S. government's official web portal to all federal, state and local government web resources and services.